Location: ????????
(48.1779°N, 34.4205°E)
Time: 12:19:29
(UTC+00:00)

Daily predictions for brighter satellites

Satellite Brightness Start Highest point End
(mag) Time Altitude Azimuth Time Altitude Azimuth Time Altitude Azimuth
MOS 1 Rocket 3.9 17:23:24 10° N 17:28:53 80° WNW 17:34:09 10° SSW
Cosmos 1140 Rocket 3.8 17:24:29 10° S 17:29:30 48° ESE 17:34:32 10° NNE
Intercosmos 25 3.2 17:26:16 10° N 17:30:15 57° ENE 17:33:25 10° SSE
Cosmos 1818 4.2 17:25:18 10° NW 17:30:39 56° WSW 17:35:56 10° SSE
MetOp-A 4.2 17:25:31 10° SSE 17:30:52 78° ENE 17:36:14 10° NNW
Cosmos 2360 Rocket 4.3 17:30:07 10° N 17:33:16 15° NE 17:36:25 10° ENE
ATLAS 5 CENTAUR R/B 3.8 17:29:32 10° NW 17:34:47 35° WSW 17:40:43 10° S
USA 276 2.6 17:35:15 10° W 17:38:24 59° N 17:41:33 10° E
Cosmos 921 Rocket 3.9 17:36:30 10° N 17:40:17 31° ENE 17:44:01 10° SE
Cosmos 1707 Rocket 3.5 17:37:52 10° N 17:42:13 69° E 17:46:31 10° SSE
X-37B 1.0 17:39:41 10° WSW 17:42:45 46° S 17:45:49 10° ESE
Cosmos 1980 Rocket 2.3 17:37:39 10° NNW 17:43:21 71° ENE 17:48:59 10° SE
FALCON 9 DEB 3.1 17:42:09 10° WSW 17:45:39 87° SSE 17:49:10 10° ENE
Genesis I 3.3 17:44:49 10° NW 17:48:42 76° SW 17:52:35 10° SSE
NOSS 3-2 (A) 3.7 17:44:00 10° S 17:49:17 42° ESE 17:55:16 10° NE
CZ-2C R/B 3.8 17:45:59 10° NNE 17:50:30 54° E 17:54:54 10° S
Cosmos 614 Rocket 4.4 17:45:38 10° SSW 17:50:47 69° WNW 17:56:01 10° NNE
USA 186 3.7 17:49:33 10° SW 17:51:15 18° W 17:52:57 10° NW
OBJECT-B 0.8 17:48:14 10° SSE 17:51:32 89° WSW 17:54:52 10° NNW
USA 267 3.9 17:47:16 10° ENE 17:52:55 30° SE 17:58:32 10° S
Cosmos 1833 Rocket 2.9 17:49:21 10° SSW 17:54:58 78° WNW 18:00:38 10° NNE
Cosmos 1470 Rocket 4.4 17:52:02 10° SSE 17:55:55 31° E 17:59:48 10° NNE
Cosmos 1697 Rocket 3.4 17:51:10 10° NW 17:56:38 54° WSW 18:02:05 10° S
NOSS 3-2 (C) 4.0 17:53:48 10° S 17:58:43 31° ESE 18:04:10 10° NE
H-2A R/B 4.3 17:57:22 10° SSW 18:01:26 24° W 18:05:29 10° NW
SJ-6B 4.3 17:58:15 10° SSW 18:02:02 38° W 18:05:46 10° NNW
Sich 1 3.4 17:57:58 10° SSW 18:02:23 73° W 18:06:51 10° N
Meteor 1-4 Rocket 2.4 18:00:08 10° N 18:03:37 86° E 18:07:04 10° SSE
SPOT 5 4.4 18:01:26 11° E 18:04:09 18° ENE 18:07:09 10° NNE
Cosmos 1184 Rocket 3.1 18:01:33 10° S 18:04:42 45° E 18:07:53 10° NNE
Cosmos 1934 Rocket 4.1 17:59:46 10° S 18:06:04 68° E 18:12:24 10° NNE
SPOT 1/Viking Rocket 4.3 18:04:26 13° SE 18:08:31 38° ENE 18:13:19 10° N
Cosmos 405 Rocket 3.6 18:07:15 15° SE 18:09:38 28° E 18:12:52 10° NNE
Cosmos 1862 Rocket 3.6 18:05:11 10° N 18:09:39 66° E 18:13:46 12° SSE
Cosmos 2333 Rocket 4.4 18:07:23 10° N 18:10:13 14° NNE 18:13:01 10° ENE
SL-27 R/B 4.3 18:13:03 13° E 18:13:03 13° E 18:14:21 10° ENE
Cosmos 1437 Rocket 4.0 18:09:34 10° NNE 18:12:43 24° ENE 18:14:34 17° ESE
Cosmos 1812 4.5 18:09:29 10° NNW 18:12:57 32° W 18:16:24 10° SSW
USA 32 4.3 18:07:59 10° SSE 18:13:01 50° E 18:18:04 10° NNE
Landsat 7 4.3 18:09:52 15° SE 18:13:37 46° ENE 18:18:11 10° N
Resurs 01 Rocket 1.6 18:10:32 10° SSE 18:14:57 86° WSW 18:19:26 10° NNW
NOSS 2 (A) 4.2 18:14:14 10° NW 18:16:48 67° SW 18:17:59 25° SSE
Meteor 1-27 Rocket 4.4 18:11:42 10° NNW 18:17:33 60° W 18:23:22 10° S
Cosmos 676 Rocket 4.0 18:12:55 10° SSW 18:18:14 78° ESE 18:23:36 10° NNE
ERS-1 Rocket 4.0 18:16:12 16° ESE 18:19:26 32° ENE 18:23:51 10° N
GP-B 3.1 18:19:13 10° N 18:23:38 61° E 18:27:26 14° S
SPOT 3 Rocket 4.3 18:22:44 10° S 18:27:48 52° W 18:32:53 10° NNW
Okean 1 3.7 18:24:17 10° N 18:28:13 48° ENE 18:30:28 23° SE
ATLAS 3B R/B 3.7 18:27:32 18° SE 18:29:24 20° ESE 18:34:02 10° ENE
USA 234 3.7 18:23:26 12° E 18:29:28 60° NNE 18:35:53 10° NW
Cosmos 1867 3.8 18:25:52 10° SW 18:31:18 75° NW 18:36:47 10° NE
Cosmos 468 Rocket 4.1 18:26:30 10° NNW 18:31:49 68° ENE 18:35:20 21° SE
CARTOSAT-1 4.4 18:29:48 21° ESE 18:31:59 35° ENE 18:35:56 10° N
Cosmos 1933 Rocket 3.6 18:33:08 16° S 18:36:34 57° E 18:40:57 10° NNE
Meteor 2-4 Rocket 4.3 18:34:04 10° N 18:39:21 39° ENE 18:42:13 23° SE
SL-4 R/B 2.4 18:37:04 10° W 18:40:59 57° NNW 18:44:36 10° ENE
IGS 5A 3.4 18:39:20 22° SSE 18:41:58 84° ENE 18:46:08 10° NNW
MetOp-B 4.3 18:41:17 14° S 18:45:51 73° WSW 18:51:14 10° NNW
Iridium 4 Rocket 4.4 18:45:41 20° E 18:46:19 21° E 18:49:29 10° NNE
Cosmos 1869 Rocket 4.5 18:46:45 27° ESE 18:47:54 31° E 18:51:50 10° NNE
Cosmos 1954 Rocket 4.5 18:42:42 10° SSW 18:47:59 64° WNW 18:53:18 10° NNE
USA 238 DEB 3.6 18:41:36 10° SW 18:48:15 90° W 18:55:14 10° NE
USA 238 3.6 18:41:44 10° SW 18:48:22 90° SSE 18:55:21 10° NE
Spot 2 Rocket 3.5 18:45:22 20° SSE 18:49:00 87° WSW 18:54:08 10° NNW
SL-16 R/B 2.2 18:43:26 10° NNW 18:49:08 71° ENE 18:52:22 26° SE
Cosmos 2219 Rocket 4.1 18:45:25 10° N 18:49:23 19° NE 18:53:21 10° E
CZ-2C R/B 4.4 18:44:52 10° N 18:49:25 32° WNW 18:53:59 10° SW
Cosmos 1741 Rocket 4.0 18:47:38 11° S 18:52:34 59° ESE 18:57:46 10° NNE
BREEZE-M DEB (TANK) 2.8 18:50:38 10° W 18:53:32 76° N 19:01:49 10° E
Okean 1-7 3.0 18:53:06 10° N 18:57:26 66° E 18:59:08 34° SSE
CZ-4B DEB 4.4 18:56:45 46° SE 18:57:30 62° ENE 19:00:49 10° N
Meteor 1-18 Rocket 4.2 18:52:20 10° NNW 18:57:57 87° W 19:01:32 23° S
Cosmos 1703 Rocket 3.4 18:53:51 10° N 18:58:13 76° E 19:00:06 33° SSE
CENTAUR R/B 2.4 18:53:09 10° SSW 18:59:02 71° SE 19:06:04 10° NE
Cosmos 2082 Rocket 3.4 18:53:43 10° SW 18:59:09 45° NW 19:04:36 10° NNE
Meteor 1-25 Rocket 4.4 18:54:10 10° SSW 18:59:43 75° WNW 19:05:24 10° N
Cosmos 1570 Rocket 4.3 18:54:32 10° NNW 18:59:49 58° ENE 19:02:16 31° SE
Cosmos 1605 Rocket 4.1 18:56:19 10° SSW 19:02:25 74° W 19:08:32 10° N
Terra 2.3 19:01:13 31° ESE 19:03:01 46° ENE 19:07:35 10° N
Cosmos 2100 Rocket 4.2 19:00:45 27° SSE 19:03:53 49° E 19:09:47 10° NNE
Lacrosse 5 2.0 18:59:17 10° WNW 19:04:17 62° SW 19:06:26 33° SSE
Cosmos 1238 Rocket 3.1 19:05:20 21° SW 19:06:58 44° WNW 19:09:52 10° N
Cosmos 2322 Rocket 2.2 19:02:13 10° NNW 19:07:57 80° ENE 19:10:41 33° SE
Cosmos 2208 Rocket 4.2 19:03:19 10° NNW 19:08:30 56° ENE 19:10:35 34° SE
Cosmos 1763 Rocket 3.7 19:04:22 10° NNW 19:09:41 70° WSW 19:12:26 29° S
Cosmos 2173 Rocket 4.1 19:08:24 29° SSE 19:11:20 53° E 19:17:15 10° NNE
USA 276 2.0 19:11:39 10° WNW 19:14:46 74° SW 19:14:46 74° SW
Cosmos 2237 4.5 19:09:56 10° NNW 19:15:35 58° ENE 19:17:59 33° ESE
Cosmos 2360 Rocket 2.5 19:13:00 10° NNW 19:18:37 56° ENE 19:20:54 34° ESE
X-37B 2.0 19:16:11 10° W 19:18:09 27° SW 19:18:09 27° SW
Cosmos 2242 Rocket 4.4 19:17:42 10° NNW 19:21:56 46° W 19:24:16 24° SSW
Cosmos 2084 Rocket 3.3 19:17:46 10° SW 19:21:58 89° SE 19:26:18 10° NE
Cosmos 1500 3.0 19:25:02 67° SE 19:25:18 71° E 19:29:03 10° NNE
Cosmos 44 3.4 19:21:37 10° NW 19:26:33 75° SW 19:28:10 43° SSE
Cosmos 1980 Rocket 4.2 19:22:41 10° NW 19:26:45 21° W 19:30:48 10° SSW
Cosmos 1459 Rocket 4.0 19:23:40 31° SSE 19:26:49 68° E 19:33:09 10° NNE
Cosmos 2016 Rocket 4.3 19:28:46 36° SE 19:30:58 51° E 19:37:08 10° NNE
SAR-Lupe-2 3.6 19:31:51 10° NNE 19:35:28 79° WNW 19:35:52 66° SW
Cosmos 1666 3.5 19:37:05 36° ENE 19:37:05 36° ENE 19:39:56 10° NNE
USA 267 3.2 19:29:53 10° NE 19:36:28 89° SSE 19:43:02 10° WSW
Cosmos 2346 Rocket 4.5 19:30:52 10° N 19:36:53 63° ENE 19:38:54 41° SE
COSMOS 2428 4.0 19:32:18 10° NNW 19:37:23 31° NE 19:39:52 23° E
Cosmos 967 Rocket 4.4 19:32:36 10° NW 19:39:00 81° WSW 19:41:23 41° SSE
NOSS 3-2 (A) 4.4 19:34:21 10° WSW 19:40:03 49° NW 19:46:37 10° NE
SPOT 5 3.0 19:40:40 42° SSW 19:41:50 57° W 19:46:11 10° NNW
Cosmos 1242 Rocket 3.7 19:39:40 10° N 19:42:36 33° NE 19:42:36 33° NE
Cosmos 2221 Rocket 3.5 19:39:01 10° N 19:43:31 69° E 19:44:04 61° SE
Cosmos 2237 Rocket 4.2 19:43:14 10° N 19:47:10 19° NE 19:50:41 11° E
SL-27 R/B 3.5 19:46:34 33° W 19:47:22 40° WNW 19:50:32 10° N
Cosmos 540 Rocket 3.7 19:43:24 10° NNW 19:48:32 63° WSW 19:49:56 45° SSW
Cosmos 1437 Rocket 4.3 19:45:42 10° NNW 19:48:58 28° W 19:49:58 24° WSW
NOSS 3-2 (C) 3.9 19:43:22 10° WSW 19:49:08 61° NW 19:55:49 10° NE
Lacrosse 4 Rocket 2.8 19:53:40 27° ENE 19:53:40 27° ENE 19:55:55 10° NE
Cosmos 2061 Rocket 3.9 19:52:31 44° S 19:54:36 74° E 20:00:47 10° NNE
Cosmos 2333 Rocket 2.8 19:50:25 10° NNW 19:56:01 48° NE 19:57:45 37° E
Cosmos 1378 Rocket 4.5 19:52:10 10° N 19:56:17 35° ENE 19:56:17 35° ENE
ERBS 4.2 19:53:58 10° NW 19:56:44 24° NNE 19:57:25 22° NE
ERS-1 Rocket 4.0 19:56:12 28° SW 19:58:08 39° W 20:02:50 10° NNW
Cosmos 1271 Rocket 4.1 19:57:31 10° N 20:00:19 28° NE 20:00:19 28° NE
Meteor 1-11 Rocket 3.6 20:00:05 51° S 20:01:33 78° E 20:07:22 10° NNE
Cosmos 2233 Rocket 4.3 20:01:24 43° ESE 20:02:35 48° E 20:08:37 10° NNE
Meteor 1-5 Rocket 4.5 20:00:11 33° SSW 20:03:01 73° WNW 20:08:57 10° N
Cosmos 1802 Rocket 4.0 20:00:36 36° SSW 20:03:25 82° W 20:09:48 10° N
Cosmos 1066 Rocket 4.2 19:59:08 10° N 20:04:50 70° ENE 20:05:53 56° SE
Cosmos 841 Rocket 4.2 20:01:16 10° NW 20:06:13 44° WSW 20:07:29 37° SW
USA 234 3.3 20:10:46 46° S 20:12:30 60° SW 20:18:59 10° WNW
Okean 3 4.2 20:11:59 10° NNW 20:16:05 44° W 20:16:26 43° WSW
Cosmos 1816 Rocket 4.4 20:10:40 10° N 20:16:57 84° W 20:18:35 52° S
Thor Agena Rocket 4.0 20:13:02 10° NNE 20:17:38 44° E 20:17:38 44° E
ATLAS 3B R/B 2.5 20:14:38 21° SW 20:19:13 90° N 20:25:55 10° NE
COSMOS 2487 4.0 20:21:58 31° NNE 20:21:58 31° NNE 20:23:53 10° NNE
SL-4 R/B 2.6 20:17:13 10° WNW 20:20:23 47° NNW 20:20:23 47° NNW
Spot 4 3.8 20:24:31 69° E 20:24:42 70° ENE 20:29:31 10° N
Iridium 4 Rocket 4.1 20:25:27 34° WSW 20:26:06 37° W 20:29:59 10° NNW
Meteor 1-23 Rocket 4.2 20:24:47 10° NNW 20:30:38 79° W 20:31:37 62° SSW
SL-16 R/B 3.9 20:28:34 10° NW 20:32:39 21° W 20:34:14 18° WSW
Cosmos 2219 Rocket 2.1 20:28:36 10° NNW 20:34:19 78° ENE 20:35:05 66° ESE
Cosmos 1536 3.6 20:36:28 48° WNW 20:36:28 48° WNW 20:40:03 10° N
MOS 1-B Rocket 3.7 20:32:39 10° NNE 20:38:18 85° WNW 20:39:23 60° SSW
ATLAS 5 CENTAUR R/B 2.8 20:36:42 10° WNW 20:39:34 53° WSW 20:39:34 53° WSW
Terra 3.5 20:40:06 22° WSW 20:40:59 24° W 20:44:50 10° NW
Cosmos 2322 3.6 20:35:32 10° NNW 20:41:10 69° WSW 20:41:39 65° SW
Cosmos 1674 Rocket 3.8 20:37:08 10° NNW 20:41:02 62° WNW 20:41:02 62° WNW
Tsikada Rocket 4.2 20:35:42 10° NNW 20:41:57 63° W 20:43:25 49° SW
Cosmos 1833 4.4 20:42:36 42° SW 20:44:26 66° WNW 20:50:06 10° NNE
Lacrosse 5 4.2 20:44:17 10° W 20:45:36 12° WSW 20:45:36 12° WSW
Cosmos 1503 Rocket 4.3 20:48:42 56° E 20:48:42 56° E 20:53:33 10° NNE
Meteor 2-11 Rocket 4.3 20:48:23 66° SE 20:49:06 74° E 20:55:13 10° NNE
CENTAUR R/B 4.0 20:44:24 10° W 20:50:18 38° NNW 20:57:12 10° NE
Cosmos 489 Rocket 4.3 20:43:58 10° NNW 20:50:19 83° WSW 20:51:15 66° S
Cosmos 2322 Rocket 4.1 20:47:34 10° WNW 20:51:18 18° W 20:52:29 17° WSW
Geosat 3.9 20:53:03 73° WSW 20:53:03 73° WSW 20:58:02 10° NNW
Cosmos 1486 Rocket 3.9 20:53:33 73° WSW 20:53:53 77° WNW 20:59:07 10° NNE
Cosmos 2333 4.5 20:50:15 10° NW 20:55:53 54° WSW 20:56:12 53° WSW
Okean 2 4.2 20:52:29 10° N 20:55:39 48° NNE 20:55:39 48° NNE
ALOS 2 2.9 20:57:42 62° NNE 20:57:42 62° NNE 21:01:30 10° N
Cosmos 1733 Rocket 4.1 20:57:31 39° W 20:57:41 39° WNW 21:01:52 10° N
SL-16 R/B 4.1 20:56:43 10° N 21:01:17 24° NE 21:04:29 15° E
Cosmos 2360 Rocket 3.5 20:57:37 10° NW 21:02:15 27° WSW 21:02:39 26° WSW
Meteor 1-21 4.3 20:59:18 10° N 21:05:06 65° ENE 21:05:34 63° ESE
Cosmos 1975 4.0 21:07:59 39° NNE 21:07:59 39° NNE 21:10:42 10° NNE
Cosmos 773 Rocket 4.1 21:09:35 10° NNW 21:14:42 62° ENE 21:14:44 62° ENE
Cosmos 968 Rocket 3.8 21:18:03 54° W 21:18:31 56° WNW 21:23:35 10° NNE
USA 267 4.1 21:12:59 10° ENE 21:19:12 48° NNW 21:25:25 10° W
Cosmos 2297 Rocket 3.3 21:20:13 31° E 21:20:13 31° E 21:24:23 10° NE
Meteor 2-9 Rocket 4.1 21:21:24 77° ESE 21:21:30 77° E 21:27:16 10° NNE
COSMOS 2428 3.0 21:16:23 10° NW 21:21:52 54° WSW 21:21:52 54° WSW
Helios 1A 3.9 21:22:59 46° NNE 21:22:59 46° NNE 21:26:21 10° N
Cosmos 1782 Rocket 4.2 21:23:22 53° NNE 21:23:22 53° NNE 21:26:44 10° N
Cosmos 44 Rocket 4.0 21:18:21 10° NW 21:22:15 45° W 21:22:15 45° W
Cosmos 1980 3.7 21:18:13 10° NNW 21:23:54 73° ENE 21:24:20 69° E
Cosmos 1538 Rocket 4.4 21:20:36 10° NNW 21:25:40 51° ENE 21:25:57 50° ENE
Cosmos 1743 4.4 21:28:20 30° NW 21:28:20 30° NW 21:31:07 10° N
Cosmos 1908 Rocket 4.5 21:30:25 43° NW 21:30:25 43° NW 21:34:06 10° N
Cosmos 2219 3.8 21:31:18 44° E 21:31:18 44° E 21:36:01 10° NE
Lacrosse 4 Rocket 3.1 21:29:56 26° WNW 21:30:45 28° NW 21:34:24 10° NNE
Cosmos 2237 Rocket 2.1 21:26:31 10° NNW 21:32:12 78° ENE 21:32:28 76° E
Cosmos 2333 Rocket 3.3 21:35:01 10° NW 21:39:44 32° W 21:39:44 32° W
Timation 2 Rocket 3.7 21:41:09 76° SE 21:41:24 78° ESE 21:47:26 10° NNE
Meteor 1-12 Rocket 4.4 21:45:54 61° ESE 21:46:11 62° E 21:52:08 10° NNE
Cosmos 1975 Rocket 4.2 21:49:53 10° NNW 21:53:12 38° WNW 21:53:12 38° WNW
Cosmos 1464 Rocket 4.0 21:54:49 61° WSW 21:55:36 67° WNW 22:01:46 10° N
Cosmos 1300 Rocket 4.3 21:57:17 49° NNE 21:57:17 49° NNE 22:00:32 10° NNE
Cosmos 1674 4.5 21:55:57 10° N 21:58:19 27° NE 21:58:19 27° NE
Cosmos 1680 Rocket 4.5 22:00:55 10° N 22:05:51 40° ENE 22:07:04 35° E
CZ-2D R/B 4.1 22:02:28 10° NE 22:06:01 17° E 22:06:57 17° E
Nadezhda 4 Rocket 3.9 22:00:41 10° NNW 22:06:56 69° W 22:07:27 66° SW
Cosmos 2227 Rocket 2.2 22:09:37 67° ESE 22:09:37 67° ESE 22:15:08 10° NNE
Helios 1B rocket 3.7 22:05:54 10° NNE 22:08:43 36° NE 22:08:43 36° NE
ATLAS 3B R/B 4.2 22:04:55 10° W 22:10:44 31° NNW 22:16:38 10° NE
Okean 2 Rocket 3.6 22:12:54 58° NNW 22:12:54 58° NNW 22:16:39 10° N
Cosmos 1777 Rocket 4.0 22:12:29 82° NW 22:12:29 82° NW 22:17:43 10° NNE
Cosmos 1707 4.3 22:09:51 10° NNW 22:12:09 32° NW 22:12:09 32° NW
Okean 1 Rocket 4.2 22:14:30 36° ENE 22:14:30 36° ENE 22:17:51 10° NNE
Meteor 2-13 Rocket 4.3 22:09:56 10° N 22:16:06 83° E 22:16:50 70° SSE
SJ 16-02 2.8 22:18:08 30° ENE 22:18:08 30° ENE 22:21:12 10° NE
Cosmos 1025 Rocket 3.9 22:13:21 10° NNW 22:16:26 44° NW 22:16:26 44° NW
Cosmos 2219 Rocket 4.0 22:13:47 10° WNW 22:16:47 18° W 22:16:47 18° W
CZ-4 R/B 3.9 22:19:28 10° NNE 22:24:20 83° NNE 22:24:20 83° NNE
Cosmos 1092 Rocket 3.8 22:20:17 10° NNW 22:26:32 78° W 22:27:10 70° SSW
Cosmos 2034 Rocket 4.3 22:26:37 50° WSW 22:27:35 55° WNW 22:33:49 10° N
Cosmos 1626 3.9 22:25:42 10° N 22:28:26 27° NE 22:28:26 27° NE
Cosmos 2344 4.4 22:23:12 10° NW 22:32:42 70° SW 22:39:29 32° SSE
Cosmos 2082 3.8 22:34:49 61° ESE 22:34:57 61° ESE 22:40:30 10° NNE
Cosmos 923 Rocket 3.9 22:33:22 10° NNW 22:38:43 90° W 22:38:48 87° SSE
Resurs 1-4 Rocket 3.1 22:38:55 10° NNE 22:43:41 33° E 22:44:27 32° ESE
Cosmos 2151 Rocket 4.3 22:45:26 45° NW 22:45:26 45° NW 22:49:07 10° N
SL-16 R/B 2.0 22:40:20 10° NNW 22:46:03 78° WSW 22:46:19 76° SW
Cosmos 2263 Rocket 3.8 22:49:31 21° ESE 22:50:31 22° ESE 22:54:41 10° NE
SL-14 R/B 4.2 22:47:16 10° N 22:50:33 44° NE 22:50:33 44° NE
Cosmos 1892 Rocket 4.2 22:49:03 10° N 22:53:23 49° ENE 22:53:36 49° E
SL-16 R/B 2.8 22:52:56 36° SE 22:55:30 65° ENE 23:01:41 10° N
NOSS 3-1 (C) 3.4 22:57:24 53° SE 22:57:52 55° ESE 23:04:00 10° NE
CZ-4C R/B 4.4 22:58:23 37° NE 22:58:23 37° NE 23:01:29 10° N
USA 267 4.4 22:55:26 10° ENE 23:01:29 42° N 23:07:33 10° WNW
DELTA 2 DEB (DPAF) 4.2 23:02:23 73° ENE 23:02:25 73° ENE 23:06:52 10° N
Cosmos 1655 Rocket 4.2 22:56:28 10° N 23:02:42 68° ENE 23:04:51 42° SSE
Cosmos 2297 Rocket 2.8 23:02:01 40° W 23:03:16 46° NW 23:08:44 10° NNE
Meteor 1-15 Rocket 4.3 23:05:38 58° WSW 23:06:19 63° WNW 23:11:52 10° N
Cosmos 1461 3.1 23:13:38 73° NW 23:13:38 73° NW 23:18:11 10° NE
Cosmos 1607 4.4 23:07:42 10° NW 23:13:36 44° WSW 23:13:36 44° WSW
Cosmos 2219 4.3 23:13:13 29° W 23:14:57 35° NW 23:20:06 10° NNE
Cosmos 2237 Rocket 4.0 23:11:51 10° WNW 23:14:16 17° W 23:14:16 17° W
Meteor 1-24 Rocket 3.4 23:10:39 10° NNW 23:16:05 82° W 23:16:49 67° S
ADEOS II 3.6 23:13:00 10° NE 23:17:27 27° E 23:19:37 21° SE
IRAS Rocket 4.2 23:16:03 52° SSE 23:17:31 88° ENE 23:23:10 10° NNW
Cosmos 2026 Rocket 4.5 23:14:45 10° NNW 23:20:25 41° W 23:21:06 40° WSW
Cosmos 2279 Rocket 3.9 23:20:54 53° SW 23:22:21 72° W 23:28:34 10° N
BREEZE-M TANK 3.7 23:25:51 33° SE 23:25:51 33° SE 23:29:29 10° ESE
Timation 1 Rocket 4.5 23:23:24 49° SSE 23:24:48 63° ESE 23:30:42 10° NE
Cosmos 1937 Rocket 3.6 23:24:35 55° SSE 23:25:32 66° ESE 23:30:49 10° NNE
Cosmos 1603 4.0 23:20:46 10° NNW 23:26:32 68° ENE 23:30:32 20° SE
Cosmos 1726 3.8 23:27:44 24° ESE 23:28:11 25° E 23:31:13 10° NE
Cosmos 1544 Rocket 4.1 23:28:26 46° SE 23:29:08 51° E 23:33:28 10° NNE
Cosmos 2292 Rocket 4.4 23:22:06 10° N 23:29:27 90° ESE 23:31:25 46° S
GEOS 3 Rocket 3.8 23:24:26 10° NE 23:29:48 61° SE 23:30:53 51° S
Cosmos 990 Rocket 3.8 23:29:02 64° SW 23:29:49 80° WNW 23:35:01 10° NNE
Cosmos 2180 Rocket 4.4 23:28:40 51° SSW 23:30:18 79° W 23:36:29 10° N
Cosmos 2112 Rocket 4.2 23:27:26 10° NNW 23:32:21 49° W 23:32:21 49° W
USA 229 DEB 3.6 23:32:46 47° SSW 23:34:52 81° SE 23:41:48 10° NE
USA 229 3.6 23:32:52 47° SSW 23:34:56 81° SE 23:41:51 10° NE
CZ-4B R/B 4.0 23:31:53 10° NNE 23:36:28 46° E 23:37:48 36° SE
Cosmos 1758 3.6 23:36:38 57° ESE 23:36:54 59° E 23:40:51 10° NNE
Cosmos 1340 Rocket 2.9 23:37:29 67° ESE 23:37:34 67° E 23:41:30 10° NNE
COBE Rocket 4.0 23:36:41 39° SE 23:38:15 66° ENE 23:42:52 10° N
Cosmos 1898 Rocket 3.5 23:39:48 55° SW 23:40:50 71° WNW 23:46:04 10° NNE
MOZ.5/SAFIR/RUBIN 5/SL-8 4.3 23:42:13 42° W 23:42:13 42° W 23:46:32 10° NNW
Helios 1B rocket 4.2 23:41:51 10° NNW 23:44:50 20° WNW 23:45:01 20° WNW
NOSS 2-3 (C) 3.7 23:44:18 59° SSE 23:44:50 65° SE 23:49:51 10° NE
NOSS 3-1 (A) 3.3 23:44:33 47° SSW 23:46:10 72° SE 23:52:34 10° NE
Cosmos 1943 3.2 23:40:36 10° NNW 23:46:16 79° ENE 23:50:49 16° SSE
CZ-2D R/B 2.1 23:41:11 10° NNE 23:46:42 79° WNW 23:48:16 48° SSW
ARIANE 5 R/B 4.2 23:42:55 10° NE 23:47:20 27° E 23:50:53 14° SE
Cosmos 1680 Rocket 4.4 23:43:15 10° NW 23:47:20 31° W 23:47:20 31° W
Meteor 2-5 Rocket 4.4 23:42:54 10° NNW 23:47:57 36° W 23:48:22 35° W
Cosmos 1602 Rocket 4.3 23:44:29 10° N 23:48:44 49° ENE 23:50:50 26° SE
Meteor 1-22 Rocket 4.4 23:50:36 44° WSW 23:51:45 52° WNW 23:57:01 10° N
Exosat Rocket 4.3 23:48:30 34° SSW 23:52:14 79° ESE 23:58:17 10° NNE
Cosmos 1953 3.1 23:52:43 36° SE 23:53:47 46° E 23:57:42 10° NNE
Cosmos 2227 Rocket 3.7 23:51:25 19° W 23:54:03 26° NW 23:58:48 10° N
SJ 16-02 2.6 23:55:07 28° WNW 23:55:48 29° WNW 23:59:41 10° N
